LKW-3

导读

LKW-3即中国陆地勘查卫星三号,于北京时间2018年1月13日,在酒泉卫星发射中心由长征二号丁运载火箭成功发射入轨,顺利进入预定轨道。该卫星主要用于开展陆地资源遥感勘查工作,服务国土勘查、地质调查等领域,是我国陆地遥感勘查体系的重要组成部分,此次发射也是长征系列运载火箭的第263次飞行。

基本信息
目录编号:
43146
目录名称:
LKW-3
国际标识:
2018-006A
轨道中心:
EARTH
卫星名称:
LKW-3
卫星全名:
--
卫星状态:
在轨 (已飞行3156 天)
发射日期:
2018-01-13 UTC
国别 :
中国 (CN)
星等 :
--
轨道信息
数据来源 国际轨道数据 AOE轨道数据
星历时间 2026-09-04T05:12:24+0800
6小时前
查看轨道信息
2026-09-03T08:00:00+0800
1天前
查看轨道信息
半长轴 6834.3km 6834.342km
偏心率 0.0003851 0.0003591
轨道倾角 97.670° 97.669°
近地点辐角 44.968° 50.044°
升交点赤经 50.659° 49.735°
平近点角 315.188° 105.347°
近地点 453.531km 453.75km
远地点 458.795km 458.66km
周期 93.713分钟 93.714分钟
每日圈数 15.366034 15.36589
详细信息
使用方式:
暂无
2D轨道图
3D轨道图
轨道高度分析图
轨道倾角分析图
轨道综合分析图
查看轨道综合分析图
交会数据列表
事件ID 空间交会对象 最接近时刻(TCA) 交会距离 交会风险概率(CRP) 交会风险指数(CRI) 操作
CDM_260903-025904-314605-358922
LKW-3 (43146)
2026-09-03T
02:59:55+0000
2.080 km
极远距离
2.305228E-6 低风险 0.42
CDM_260903-082804-314605-358923
LKW-3 (43146)
2026-09-03T
08:28:11+0000
2.395 km
极远距离
1.689908E-6 低风险 0.4
CDM_260903-093704-314606-855523
LKW-3 (43146)
2026-09-03T
09:37:32+0000
2.852 km
极远距离
1.411195E-6 低风险 0.38
CDM_260905-021504-314606-343922
LKW-3 (43146)
2026-09-05T
02:15:04+0000
2.586 km
极远距离
1.053062E-6 低风险 0.35
CDM_260905-125204-314606-043321
LKW-3 (43146)
2026-09-05T
12:52:46+0000
2.999 km
极远距离
9.424127E-7 极低风险 0.34